Location: Clarion
(42.7316°N, 93.7330°W)
Time: 22:39:58
(UTC+00:00)

Cosmos 1025 Rocket - Pass Details

Date: 22 April 2026
Orbit: 586 x 609 km, 82.5° (Epoch: 12 May)

Event Time Altitude Azimuth Distance (km) Brightness Sun altitude
Rises 03:20:54 0° 342° (NNW) 2,832 7.5 -22.4°
Reaches altitude 10° 03:23:15 10° 333° (NNW) 1,929 6.6 -22.7°
Maximum altitude 03:27:04 33° 269° (W) 1,006 4.5 -23.2°
Enters shadow 03:29:05 22° 222° (SW) 1,327 4.7 -23.4°
